Time,TemperatureF,DewpointF,PressureIn,WindDirection,WindDirectionDegrees,WindSpeedMPH,WindSpeedGustMPH,Humidity,HourlyPrecipIn,Conditions,Clouds,dailyrainin,SoftwareType,DateUTC
2013-01-22 00:04:00,5.0,-1.0,30.37,WNW,295,11.0,17.0,75,0.00,,,0.00,,2013-01-22 05:04:00,
2013-01-22 00:12:00,5.0,-1.0,30.37,WNW,295,11.0,17.0,75,0.00,,,0.00,,2013-01-22 05:12:00,
2013-01-22 00:22:00,5.0,-1.0,30.37,WNW,287,11.0,16.0,76,0.00,,,0.00,,2013-01-22 05:22:00,
2013-01-22 00:32:00,5.0,-1.0,30.37,WNW,287,11.0,16.0,76,0.00,,,0.00,,2013-01-22 05:32:00,
2013-01-22 00:42:00,5.0,-1.0,30.37,WNW,302,10.0,16.0,77,0.00,,,0.00,,2013-01-22 05:42:00,
2013-01-22 00:52:00,5.0,-1.0,30.37,WNW,282,13.0,17.0,77,0.00,,,0.00,,2013-01-22 05:52:00,
2013-01-22 01:02:00,5.0,-1.0,30.37,NW,307,12.0,20.0,77,0.00,,,0.00,,2013-01-22 06:02:00,
2013-01-22 01:12:00,5.0,-1.0,30.37,NW,307,12.0,20.0,77,0.00,,,0.00,,2013-01-22 06:12:00,
2013-01-22 01:22:00,5.0,0.0,30.37,WNW,285,10.0,15.0,78,0.00,,,0.00,,2013-01-22 06:22:00,
2013-01-22 01:32:00,5.0,0.0,30.36,WNW,289,9.0,15.0,79,0.00,,,0.00,,2013-01-22 06:32:00,
2013-01-22 01:42:00,5.0,0.0,30.36,WNW,289,9.0,15.0,79,0.00,,,0.00,,2013-01-22 06:42:00,
2013-01-22 01:52:00,4.0,-1.0,30.36,WNW,293,11.0,16.0,79,0.00,,,0.00,,2013-01-22 06:52:00,
2013-01-22 02:02:00,4.0,-1.0,30.36,West,281,11.0,16.0,79,0.00,,,0.00,,2013-01-22 07:02:00,
2013-01-22 02:12:00,4.0,-1.0,30.36,West,281,11.0,16.0,79,0.00,,,0.00,,2013-01-22 07:12:00,
2013-01-22 02:22:00,4.0,-1.0,30.36,WNW,283,10.0,15.0,80,0.00,,,0.00,,2013-01-22 07:22:00,
2013-01-22 02:32:00,4.0,-1.0,30.36,West,281,8.0,15.0,80,0.00,,,0.00,,2013-01-22 07:32:00,
2013-01-22 02:42:00,4.0,-1.0,30.36,West,281,8.0,15.0,80,0.00,,,0.00,,2013-01-22 07:42:00,
2013-01-22 02:52:00,4.0,-1.0,30.37,WNW,296,9.0,13.0,81,0.00,,,0.00,,2013-01-22 07:52:00,
2013-01-22 03:02:00,4.0,-1.0,30.37,WNW,291,9.0,13.0,81,0.00,,,0.00,,2013-01-22 08:02:00,
2013-01-22 03:12:00,4.0,-1.0,30.37,WNW,291,9.0,13.0,81,0.00,,,0.00,,2013-01-22 08:12:00,
2013-01-22 03:22:00,4.0,-1.0,30.37,West,272,8.0,15.0,81,0.00,,,0.00,,2013-01-22 08:22:00,
2013-01-22 03:32:00,3.0,-1.0,30.37,West,277,8.0,12.0,81,0.00,,,0.00,,2013-01-22 08:32:00,
2013-01-22 03:42:00,3.0,-1.0,30.37,West,277,8.0,12.0,81,0.00,,,0.00,,2013-01-22 08:42:00,
2013-01-22 03:52:00,3.0,-1.0,30.38,NW,311,8.0,11.0,81,0.00,,,0.00,,2013-01-22 08:52:00,
2013-01-22 04:02:00,3.0,-1.0,30.38,WNW,292,9.0,13.0,82,0.00,,,0.00,,2013-01-22 09:02:00,
2013-01-22 04:12:00,3.0,-1.0,30.38,WNW,292,9.0,13.0,82,0.00,,,0.00,,2013-01-22 09:12:00,
2013-01-22 04:22:00,3.0,-1.0,30.38,WNW,284,8.0,12.0,82,0.00,,,0.00,,2013-01-22 09:22:00,
2013-01-22 04:32:00,3.0,-1.0,30.38,WNW,284,8.0,12.0,82,0.00,,,0.00,,2013-01-22 09:32:00,
2013-01-22 04:42:00,3.0,-1.0,30.38,WNW,284,8.0,12.0,82,0.00,,,0.00,,2013-01-22 09:42:00,
2013-01-22 04:52:00,3.0,-1.0,30.39,WNW,285,8.0,11.0,83,0.00,,,0.00,,2013-01-22 09:52:00,
2013-01-22 05:02:00,3.0,-1.0,30.39,West,281,8.0,11.0,83,0.00,,,0.00,,2013-01-22 10:02:00,
2013-01-22 05:12:00,3.0,-1.0,30.39,West,281,8.0,11.0,83,0.00,,,0.00,,2013-01-22 10:12:00,
2013-01-22 05:22:00,3.0,-1.0,30.39,West,281,7.0,11.0,83,0.00,,,0.00,,2013-01-22 10:22:00,
2013-01-22 05:32:00,3.0,-1.0,30.39,West,270,6.0,11.0,83,0.00,,,0.00,,2013-01-22 10:32:00,
2013-01-22 05:42:00,3.0,-1.0,30.39,West,270,6.0,11.0,83,0.00,,,0.00,,2013-01-22 10:42:00,
2013-01-22 05:52:00,3.0,-1.0,30.40,West,278,8.0,11.0,83,0.00,,,0.00,,2013-01-22 10:52:00,
2013-01-22 06:02:00,3.0,-1.0,30.40,West,281,7.0,11.0,83,0.00,,,0.00,,2013-01-22 11:02:00,
2013-01-22 06:12:00,3.0,-1.0,30.40,West,281,7.0,11.0,83,0.00,,,0.00,,2013-01-22 11:12:00,
2013-01-22 06:22:00,3.0,-1.0,30.40,WNW,289,7.0,12.0,83,0.00,,,0.00,,2013-01-22 11:22:00,
2013-01-22 06:33:00,3.0,-1.0,30.40,WNW,298,8.0,12.0,83,0.00,,,0.00,,2013-01-22 11:33:00,
2013-01-22 06:43:00,3.0,-1.0,30.40,WNW,298,8.0,12.0,83,0.00,,,0.00,,2013-01-22 11:43:00,
2013-01-22 06:53:00,3.0,-1.0,30.41,NW,314,8.0,13.0,83,0.00,,,0.00,,2013-01-22 11:53:00,
2013-01-22 07:03:00,3.0,-1.0,30.41,West,277,7.0,11.0,83,0.00,,,0.00,,2013-01-22 12:03:00,
2013-01-22 07:12:00,3.0,-1.0,30.41,West,277,7.0,11.0,83,0.00,,,0.00,,2013-01-22 12:12:00,
2013-01-22 07:23:00,3.0,-1.0,30.41,West,277,7.0,11.0,83,0.00,,,0.00,,2013-01-22 12:23:00,
2013-01-22 07:33:00,3.0,-1.0,30.41,West,277,7.0,11.0,83,0.00,,,0.00,,2013-01-22 12:33:00,
2013-01-22 07:43:00,2.0,-2.0,30.42,WNW,286,7.0,11.0,83,0.00,,,0.00,,2013-01-22 12:43:00,
2013-01-22 07:53:00,2.0,-2.0,30.42,WNW,290,7.0,10.0,83,0.00,,,0.00,,2013-01-22 12:53:00,
2013-01-22 08:04:00,2.0,-2.0,30.43,West,281,6.0,10.0,84,0.00,,,0.00,,2013-01-22 13:04:00,
2013-01-22 08:13:00,2.0,-2.0,30.43,West,281,6.0,10.0,84,0.00,,,0.00,,2013-01-22 13:13:00,
2013-01-22 08:23:00,2.0,-2.0,30.43,West,281,6.0,10.0,84,0.00,,,0.00,,2013-01-22 13:23:00,
2013-01-22 08:33:00,2.0,-2.0,30.43,WNW,287,5.0,8.0,84,0.00,,,0.00,,2013-01-22 13:33:00,
2013-01-22 08:43:00,2.0,-2.0,30.43,WNW,287,5.0,8.0,84,0.00,,,0.00,,2013-01-22 13:43:00,
2013-01-22 08:53:00,2.0,-2.0,30.44,WNW,287,6.0,8.0,84,0.00,,,0.00,,2013-01-22 13:53:00,
2013-01-22 09:03:00,3.0,-1.0,30.44,WNW,295,7.0,11.0,84,0.00,,,0.00,,2013-01-22 14:03:00,
2013-01-22 09:13:00,3.0,-1.0,30.44,WNW,295,7.0,11.0,84,0.00,,,0.00,,2013-01-22 14:13:00,
2013-01-22 09:23:00,3.0,-1.0,30.45,NW,309,9.0,13.0,83,0.00,,,0.00,,2013-01-22 14:23:00,
2013-01-22 09:33:00,4.0,0.0,30.45,NW,304,9.0,13.0,83,0.00,,,0.00,,2013-01-22 14:33:00,
2013-01-22 09:43:00,4.0,0.0,30.45,NW,304,9.0,13.0,83,0.00,,,0.00,,2013-01-22 14:43:00,
2013-01-22 09:54:00,4.0,0.0,30.46,WNW,300,10.0,13.0,82,0.00,,,0.00,,2013-01-22 14:54:00,
2013-01-22 10:03:00,5.0,0.0,30.46,NW,312,10.0,13.0,81,0.00,,,0.00,,2013-01-22 15:03:00,
2013-01-22 10:13:00,5.0,0.0,30.46,NW,312,10.0,13.0,81,0.00,,,0.00,,2013-01-22 15:13:00,
2013-01-22 10:23:00,5.0,0.0,30.47,WNW,285,9.0,15.0,80,0.00,,,0.00,,2013-01-22 15:23:00,
2013-01-22 10:34:00,7.0,2.0,30.47,WNW,287,10.0,14.0,79,0.00,,,0.00,,2013-01-22 15:34:00,
2013-01-22 10:43:00,7.0,2.0,30.47,WNW,287,10.0,14.0,79,0.00,,,0.00,,2013-01-22 15:43:00,
2013-01-22 10:53:00,7.0,2.0,30.47,WNW,287,10.0,14.0,79,0.00,,,0.00,,2013-01-22 15:53:00,
2013-01-22 11:03:00,7.0,1.0,30.47,NW,313,9.0,13.0,76,0.00,,,0.00,,2013-01-22 16:03:00,
2013-01-22 11:13:00,7.0,1.0,30.47,NW,313,9.0,13.0,76,0.00,,,0.00,,2013-01-22 16:13:00,
2013-01-22 11:23:00,8.0,1.0,30.47,West,273,10.0,15.0,74,0.00,,,0.00,,2013-01-22 16:23:00,
2013-01-22 11:33:00,6.0,-1.0,30.48,WNW,285,9.0,14.0,71,0.00,,,0.00,,2013-01-22 16:33:00,
2013-01-22 11:43:00,6.0,-1.0,30.48,WNW,285,9.0,14.0,71,0.00,,,0.00,,2013-01-22 16:43:00,
2013-01-22 11:54:00,8.0,1.0,30.48,West,261,8.0,16.0,71,0.00,,,0.00,,2013-01-22 16:54:00,
2013-01-22 12:03:00,9.0,1.0,30.47,West,272,8.0,15.0,69,0.00,,,0.00,,2013-01-22 17:03:00,
2013-01-22 12:13:00,9.0,1.0,30.47,West,272,8.0,15.0,69,0.00,,,0.00,,2013-01-22 17:13:00,
2013-01-22 12:23:00,9.0,1.0,30.47,West,272,8.0,15.0,69,0.00,,,0.00,,2013-01-22 17:23:00,
2013-01-22 12:34:00,9.0,1.0,30.47,West,272,8.0,15.0,69,0.00,,,0.00,,2013-01-22 17:34:00,
2013-01-22 12:43:00,9.0,1.0,30.47,West,272,8.0,15.0,69,0.00,,,0.00,,2013-01-22 17:43:00,
2013-01-22 12:54:00,11.0,1.0,30.45,West,278,8.0,15.0,64,0.00,,,0.00,,2013-01-22 17:54:00,
2013-01-22 13:04:00,10.0,-1.0,30.44,West,269,9.0,14.0,61,0.00,,,0.00,,2013-01-22 18:04:00,
2013-01-22 13:13:00,10.0,-1.0,30.44,West,269,9.0,14.0,61,0.00,,,0.00,,2013-01-22 18:13:00,
2013-01-22 13:23:00,10.0,-1.0,30.44,West,269,9.0,14.0,61,0.00,,,0.00,,2013-01-22 18:23:00,
2013-01-22 13:33:00,12.0,0.0,30.43,West,259,8.0,14.0,58,0.00,,,0.00,,2013-01-22 18:33:00,
2013-01-22 13:43:00,12.0,0.0,30.43,West,259,8.0,14.0,58,0.00,,,0.00,,2013-01-22 18:43:00,
2013-01-22 13:54:00,13.0,0.0,30.42,West,269,9.0,15.0,56,0.00,,,0.00,,2013-01-22 18:54:00,
2013-01-22 14:03:00,13.0,0.0,30.42,NW,315,10.0,16.0,55,0.00,,,0.00,,2013-01-22 19:03:00,
2013-01-22 14:13:00,13.0,0.0,30.42,NW,315,10.0,16.0,55,0.00,,,0.00,,2013-01-22 19:13:00,
2013-01-22 14:23:00,13.0,0.0,30.42,NW,317,9.0,15.0,55,0.00,,,0.00,,2013-01-22 19:23:00,
2013-01-22 14:33:00,13.0,-2.0,30.42,WNW,302,12.0,17.0,51,0.00,,,0.00,,2013-01-22 19:33:00,
2013-01-22 14:43:00,13.0,-2.0,30.42,WNW,302,12.0,17.0,51,0.00,,,0.00,,2013-01-22 19:43:00,
2013-01-22 14:54:00,14.0,-1.0,30.42,West,270,9.0,16.0,51,0.00,,,0.00,,2013-01-22 19:54:00,
2013-01-22 15:03:00,14.0,-2.0,30.41,WNW,285,11.0,16.0,49,0.00,,,0.00,,2013-01-22 20:03:00,
2013-01-22 15:13:00,14.0,-2.0,30.41,WNW,285,11.0,16.0,49,0.00,,,0.00,,2013-01-22 20:13:00,
2013-01-22 15:23:00,14.0,-2.0,30.41,WNW,285,11.0,16.0,49,0.00,,,0.00,,2013-01-22 20:23:00,
2013-01-22 15:33:00,15.0,-1.0,30.42,WNW,288,7.0,14.0,48,0.00,,,0.00,,2013-01-22 20:33:00,
2013-01-22 15:43:00,15.0,-1.0,30.42,WNW,288,7.0,14.0,48,0.00,,,0.00,,2013-01-22 20:43:00,
2013-01-22 15:53:00,15.0,0.0,30.42,WNW,296,8.0,15.0,50,0.00,,,0.00,,2013-01-22 20:53:00,
2013-01-22 16:03:00,15.0,-1.0,30.42,WNW,302,11.0,17.0,48,0.00,,,0.00,,2013-01-22 21:03:00,
2013-01-22 16:13:00,15.0,-1.0,30.42,WNW,302,11.0,17.0,48,0.00,,,0.00,,2013-01-22 21:13:00,
2013-01-22 16:23:00,14.0,-2.0,30.42,WNW,296,8.0,16.0,49,0.00,,,0.00,,2013-01-22 21:23:00,
2013-01-22 16:33:00,14.0,-2.0,30.42,West,265,8.0,14.0,49,0.00,,,0.00,,2013-01-22 21:33:00,
2013-01-22 16:43:00,14.0,-2.0,30.42,West,265,8.0,14.0,49,0.00,,,0.00,,2013-01-22 21:43:00,
2013-01-22 16:53:00,14.0,-1.0,30.42,West,278,12.0,18.0,50,0.00,,,0.00,,2013-01-22 21:53:00,
2013-01-22 17:03:00,13.0,-1.0,30.42,WNW,302,10.0,15.0,52,0.00,,,0.00,,2013-01-22 22:03:00,
2013-01-22 17:12:00,13.0,-1.0,30.42,WNW,302,10.0,15.0,52,0.00,,,0.00,,2013-01-22 22:12:00,
2013-01-22 17:22:00,13.0,-1.0,30.42,NW,307,10.0,14.0,52,0.00,,,0.00,,2013-01-22 22:22:00,
2013-01-22 17:32:00,13.0,-1.0,30.42,NW,307,10.0,14.0,52,0.00,,,0.00,,2013-01-22 22:32:00,
2013-01-22 17:43:00,12.0,-1.0,30.41,WNW,295,8.0,13.0,55,0.00,,,0.00,,2013-01-22 22:43:00,
2013-01-22 17:53:00,12.0,-1.0,30.42,WNW,302,9.0,12.0,56,0.00,,,0.00,,2013-01-22 22:53:00,
2013-01-22 18:03:00,12.0,-1.0,30.42,WNW,295,7.0,13.0,56,0.00,,,0.00,,2013-01-22 23:03:00,
2013-01-22 18:12:00,12.0,-1.0,30.42,WNW,295,7.0,13.0,56,0.00,,,0.00,,2013-01-22 23:12:00,
2013-01-22 18:24:00,12.0,0.0,30.42,WNW,292,8.0,11.0,57,0.00,,,0.00,,2013-01-22 23:24:00,
2013-01-22 18:33:00,11.0,-1.0,30.42,NW,311,7.0,12.0,58,0.00,,,0.00,,2013-01-22 23:33:00,
2013-01-22 18:43:00,11.0,-1.0,30.42,NW,311,7.0,12.0,58,0.00,,,0.00,,2013-01-22 23:43:00,
2013-01-22 18:53:00,11.0,-1.0,30.42,NW,311,7.0,12.0,58,0.00,,,0.00,,2013-01-22 23:53:00,
2013-01-22 19:03:00,11.0,0.0,30.42,NW,315,6.0,11.0,59,0.00,,,0.00,,2013-01-23 00:03:00,
2013-01-22 19:12:00,11.0,0.0,30.42,NW,315,6.0,11.0,59,0.00,,,0.00,,2013-01-23 00:12:00,
2013-01-22 19:23:00,11.0,0.0,30.42,West,279,6.0,11.0,60,0.00,,,0.00,,2013-01-23 00:23:00,
2013-01-22 19:33:00,12.0,1.0,30.42,WNW,284,6.0,10.0,61,0.00,,,0.00,,2013-01-23 00:33:00,
2013-01-22 19:43:00,12.0,1.0,30.42,WNW,284,6.0,10.0,61,0.00,,,0.00,,2013-01-23 00:43:00,
2013-01-22 19:52:00,12.0,1.0,30.41,NW,306,6.0,10.0,61,0.00,,,0.00,,2013-01-23 00:52:00,
2013-01-22 20:03:00,12.0,1.0,30.41,WNW,303,7.0,10.0,61,0.00,,,0.00,,2013-01-23 01:03:00,
2013-01-22 20:13:00,12.0,1.0,30.41,WNW,303,7.0,10.0,61,0.00,,,0.00,,2013-01-23 01:13:00,
2013-01-22 20:23:00,12.0,1.0,30.41,WNW,294,7.0,11.0,61,0.00,,,0.00,,2013-01-23 01:23:00,
2013-01-22 20:33:00,12.0,1.0,30.41,WNW,296,7.0,10.0,61,0.00,,,0.00,,2013-01-23 01:33:00,
2013-01-22 20:43:00,12.0,1.0,30.41,WNW,296,7.0,10.0,61,0.00,,,0.00,,2013-01-23 01:43:00,
2013-01-22 20:52:00,12.0,1.0,30.41,WNW,296,7.0,10.0,61,0.00,,,0.00,,2013-01-23 01:52:00,
2013-01-22 21:03:00,12.0,1.0,30.41,WNW,296,7.0,10.0,61,0.00,,,0.00,,2013-01-23 02:03:00,
2013-01-22 21:12:00,12.0,1.0,30.41,WNW,296,7.0,10.0,61,0.00,,,0.00,,2013-01-23 02:12:00,
2013-01-22 21:23:00,11.0,1.0,30.41,West,266,5.0,9.0,63,0.00,,,0.00,,2013-01-23 02:23:00,
2013-01-22 21:33:00,11.0,1.0,30.41,WNW,297,6.0,8.0,63,0.00,,,0.00,,2013-01-23 02:33:00,
2013-01-22 21:43:00,11.0,1.0,30.41,WNW,297,6.0,8.0,63,0.00,,,0.00,,2013-01-23 02:43:00,
2013-01-22 21:53:00,11.0,2.0,30.42,WNW,302,4.0,7.0,65,0.00,,,0.00,,2013-01-23 02:53:00,
2013-01-22 22:03:00,11.0,2.0,30.42,NW,304,5.0,8.0,66,0.00,,,0.00,,2013-01-23 03:03:00,
2013-01-22 22:13:00,11.0,2.0,30.42,NW,304,5.0,8.0,66,0.00,,,0.00,,2013-01-23 03:13:00,
2013-01-22 22:23:00,11.0,2.0,30.42,WNW,296,4.0,7.0,66,0.00,,,0.00,,2013-01-23 03:23:00,
2013-01-22 22:33:00,11.0,2.0,30.42,NW,319,4.0,7.0,66,0.00,,,0.00,,2013-01-23 03:33:00,
2013-01-22 22:42:00,11.0,2.0,30.42,NW,319,4.0,7.0,66,0.00,,,0.00,,2013-01-23 03:42:00,
2013-01-22 22:53:00,11.0,2.0,30.42,NW,319,4.0,7.0,66,0.00,,,0.00,,2013-01-23 03:53:00,
2013-01-22 23:03:00,11.0,2.0,30.43,NW,314,5.0,8.0,65,0.00,,,0.00,,2013-01-23 04:03:00,
2013-01-22 23:12:00,11.0,2.0,30.43,NW,314,5.0,8.0,65,0.00,,,0.00,,2013-01-23 04:12:00,
2013-01-22 23:23:00,11.0,2.0,30.43,WNW,292,5.0,8.0,65,0.00,,,0.00,,2013-01-23 04:23:00,
2013-01-22 23:33:00,11.0,2.0,30.43,WNW,292,5.0,8.0,65,0.00,,,0.00,,2013-01-23 04:33:00,
2013-01-22 23:43:00,11.0,2.0,30.43,WNW,292,5.0,8.0,65,0.00,,,0.00,,2013-01-23 04:43:00,
2013-01-22 23:52:00,11.0,2.0,30.43,NW,319,4.0,7.0,66,0.00,,,0.00,,2013-01-23 04:52:00,